Location: Busbach
(49.9423°N, 11.4030°E)
Time: 01:17:16
(UTC+00:00)

Daily predictions for brighter satellites

Satellite Brightness Start Highest point End
(mag) Time Altitude Azimuth Time Altitude Azimuth Time Altitude Azimuth
STARLINK-1105 3.0 00:00:01 10° WNW 00:03:07 71° NNE 00:06:12 10° ESE
STARLINK-1209 2.8 00:00:15 10° WNW 00:03:25 87° NNE 00:06:35 10° ESE
STARLINK-1247 3.0 00:00:55 10° WNW 00:04:03 72° NNE 00:07:10 10° ESE
STARLINK-1208 4.2 00:00:19 10° WNW 00:04:26 60° N 00:08:32 10° E
STARLINK-1227 3.0 00:01:23 10° WNW 00:04:29 72° NNE 00:07:35 10° ESE
ATLAS CENTAUR R/B 2.4 00:02:38 10° NW 00:04:46 40° NNE 00:08:37 10° ESE
STARLINK-1226 3.0 00:02:14 10° WNW 00:05:21 73° NNE 00:08:29 10° ESE
STARLINK-1215 3.0 00:03:11 10° WNW 00:06:19 74° NNE 00:09:25 10° ESE
STARLINK-1225 4.2 00:02:22 10° W 00:06:28 57° N 00:10:34 10° ENE
Nadezhda 2 Rocket 4.4 00:04:33 29° S 00:07:53 85° E 00:14:03 10° N
STARLINK-1217 3.0 00:04:57 10° WNW 00:08:04 75° NNE 00:11:11 10° ESE
STARLINK-1229 3.0 00:05:52 10° WNW 00:09:00 76° NNE 00:12:07 10° ESE
STARLINK-1271 4.1 00:05:20 10° WNW 00:09:27 61° N 00:13:34 10° E
STARLINK-1270 2.9 00:06:43 10° WNW 00:09:51 76° NNE 00:12:59 10° ESE
Cosmos 1726 3.8 00:07:31 10° NW 00:10:21 21° W 00:10:54 20° WSW
GEOS 3 Rocket 3.7 00:07:39 26° SSE 00:10:33 59° SW 00:15:48 10° NW
STARLINK-1230 4.3 00:07:21 10° W 00:11:27 57° N 00:15:33 10° ENE
STARLINK-1189 2.9 00:08:34 10° WNW 00:11:42 78° NNE 00:14:49 10° ESE
Cosmos 2058 Rocket 3.0 00:07:19 10° N 00:11:45 87° E 00:13:46 32° SSE
STARLINK-1188 2.9 00:09:27 10° WNW 00:12:35 79° NNE 00:15:43 10° ESE
Meteor 1-29 2.8 00:09:21 10° NNE 00:12:45 83° WNW 00:13:32 51° SSW
STARLINK-1235 2.7 00:10:09 10° WNW 00:13:15 89° SSW 00:16:21 10° ESE
STARLINK-1187 2.8 00:10:34 10° WNW 00:13:40 85° NNE 00:16:47 10° ESE
Cosmos 2228 3.4 00:10:07 10° NNW 00:14:13 47° W 00:15:32 35° SW
STARLINK-1154 4.1 00:10:19 10° WNW 00:14:27 63° NNE 00:18:34 10° E
COSMOS 2455 2.9 00:11:40 29° SSW 00:14:50 72° ESE 00:20:52 10° NE
STARLINK-1191 2.8 00:11:56 10° WNW 00:15:03 81° NNE 00:18:09 10° ESE
SJ 16-02 3.5 00:11:48 10° N 00:15:30 25° NE 00:19:10 10° ESE
STARLINK-1221 2.8 00:12:48 10° WNW 00:15:55 82° NNE 00:19:02 10° ESE
STARLINK-1243 4.3 00:12:21 10° W 00:16:27 56° N 00:20:33 10° ENE
STARLINK-1222 2.8 00:13:41 10° WNW 00:16:48 83° NNE 00:19:55 10° ESE
STARLINK-1214 2.8 00:14:37 10° WNW 00:17:43 83° NNE 00:20:49 10° ESE
Cosmos 1953 4.2 00:15:52 10° NW 00:18:33 17° W 00:19:26 16° WSW
STARLINK-1197 4.0 00:15:18 10° WNW 00:19:26 64° NNE 00:23:33 10° E
SL-14 R/B 3.3 00:18:39 37° SSE 00:20:02 68° E 00:23:54 10° NNE
Cosmos 1340 Rocket 4.4 00:17:10 10° NW 00:20:18 22° W 00:21:08 20° WSW
IRAS Rocket 4.2 00:17:53 26° S 00:21:07 72° WSW 00:26:42 10° NNW
STARLINK-1236 4.3 00:17:21 10° W 00:21:27 55° N 00:25:32 10° ENE
Cosmos 1300 2.6 00:19:41 10° N 00:23:32 86° ENE 00:25:04 35° SSE
Okean 1-7 Rocket 3.5 00:22:03 34° S 00:24:00 89° ESE 00:28:32 10° N
Cosmos 1174 3.3 00:23:33 50° SSW 00:24:17 74° SE 00:27:58 10° NE
STARLINK-1198 4.0 00:20:15 10° WNW 00:24:23 66° NNE 00:28:31 10° E
Cosmos 921 Rocket 3.6 00:23:34 28° SSE 00:25:23 45° ESE 00:29:31 10° NNE
BREEZE M DEB (TANK) 2.1 00:26:50 50° SE 00:26:50 50° SE 00:29:28 10° ESE
COSMOS 2487 3.5 00:24:12 10° NW 00:27:13 28° WSW 00:27:18 28° WSW
STARLINK-1199 3.9 00:25:17 10° WNW 00:29:25 68° NNE 00:33:33 10° E
STARLINK-1269 4.3 00:27:20 10° W 00:31:25 55° N 00:35:31 10° ENE
Cosmos 1626 Rocket 4.2 00:29:36 23° SSE 00:31:55 47° E 00:36:05 10° NNE
Cosmos 2219 3.7 00:26:46 10° NNW 00:32:25 60° ENE 00:37:59 10° SE
STARLINK-1210 3.9 00:30:15 10° WNW 00:34:23 70° NNE 00:38:32 10° E
Cosmos 1626 2.1 00:34:31 38° SSW 00:35:50 76° WNW 00:39:34 10° N
STARLINK-1200 4.3 00:32:21 10° W 00:36:27 55° N 00:40:32 10° ENE
STARLINK-60 3.1 00:36:27 47° S 00:36:51 51° SSE 00:39:59 10° ENE
Cosmos 1656 Rocket 4.4 00:33:51 18° WSW 00:37:47 47° NW 00:43:11 10° NNE
STARLINK-1219 3.8 00:35:14 10° WNW 00:39:23 73° NNE 00:43:32 10° ESE
Nadezhda 1 Rocket 4.0 00:34:50 10° N 00:41:01 87° ENE 00:45:52 18° S
STARLINK-1192 4.4 00:37:21 10° WNW 00:41:27 55° N 00:45:32 10° E
FALCON 9 R/B 3.9 00:38:25 23° SSW 00:42:13 33° SSE 00:59:33 10° ESE
STARLINK-1211 3.8 00:40:12 10° WNW 00:44:21 76° NNE 00:48:30 10° ESE
STARLINK-1244 4.4 00:42:20 10° WNW 00:46:25 55° N 00:50:31 10° E
MOZ.5/SAFIR/RUBIN 5/SL-8 3.7 00:44:16 23° S 00:47:07 77° WSW 00:51:47 10° NNW
UNK 3.8 00:44:01 18° SSE 00:47:23 82° ENE 00:52:01 10° NNW
Cosmos 2297 Rocket 2.6 00:42:27 10° NNW 00:48:06 64° ENE 00:53:42 10° SE
Cosmos 220 Rocket 4.4 00:46:16 26° S 00:48:33 57° ESE 00:52:55 10° NNE
STARLINK-1245 3.7 00:45:12 10° WNW 00:49:21 78° NNE 00:53:31 10° ESE
Cosmos 1812 Rocket 3.9 00:46:29 10° N 00:50:58 68° ENE 00:54:30 16° SSE
CZ-4B R/B 4.3 00:46:27 10° NNE 00:51:24 47° E 00:55:16 17° SSE
STARLINK-1138 4.3 00:47:20 10° WNW 00:51:25 55° N 00:55:31 10° E
SL-4 R/B 2.4 00:49:12 25° SW 00:51:56 62° SSE 00:56:36 10° ENE
Cosmos 1437 2.5 00:52:48 42° SSW 00:53:40 78° W 00:56:42 10° N
STARLINK-1203 4.4 00:49:56 10° WNW 00:54:05 56° N 00:58:14 10° E
STARLINK-1233 3.7 00:50:10 10° WNW 00:54:20 82° NNE 00:58:29 10° ESE
STARLINK-1143 4.3 00:52:20 10° WNW 00:56:25 55° N 01:00:31 10° E
SL-19 R/B 4.4 00:51:09 10° N 00:56:26 62° WNW 01:00:03 22° SW
STARLINK-1204 3.6 00:55:10 10° WNW 00:59:20 85° NNE 01:03:29 10° ESE
ATLAS CENTAUR R/B 1.6 00:56:56 23° SW 00:59:32 68° NW 01:03:38 10° NE
Timation 2 Rocket 4.2 00:53:44 10° NW 00:59:53 51° WSW 01:04:30 17° S
SL-16 R/B 2.5 00:56:01 15° S 01:01:12 75° WSW 01:07:25 10° NNW
STARLINK-1241 4.3 00:57:19 10° WNW 01:01:25 56° N 01:05:30 10° E
NOSS 3-4 (A) 3.9 00:57:31 14° WSW 01:02:40 58° NW 01:09:05 10° NE
NOSS 3-4 (C) 3.9 00:57:37 14° WSW 01:02:45 59° NW 01:09:12 10° NE
BREEZE-M R/B 3.5 01:01:07 25° SSW 01:02:46 35° SSE 01:05:35 10° E
FALCON 9 DEB 4.1 01:02:08 27° S 01:03:01 31° SE 01:06:08 10° E
STARLINK-1238 3.6 01:00:07 10° WNW 01:04:17 88° NNE 01:08:26 10° ESE
Cosmos 1602 Rocket 3.5 01:01:58 23° S 01:04:39 79° E 01:08:59 10° NNE
STARLINK-29 3.3 01:04:34 34° SSW 01:05:31 46° SSE 01:08:36 10° ENE
Cosmos 1455 2.8 01:02:15 10° N 01:05:57 54° ENE 01:09:23 12° SSE
STARLINK-1239 4.3 01:02:18 10° WNW 01:06:24 56° N 01:10:30 10° E
ATLAS 3B R/B 3.2 01:00:59 10° NW 01:07:13 39° WSW 01:12:43 14° S
BREEZE-M DEB (TANK) 3.9 01:09:29 14° SE 01:09:29 14° SE 01:10:33 10° ESE
STARLINK-1201 3.5 01:05:07 10° WNW 01:09:17 88° SSW 01:13:26 10° ESE
IRS-1D 4.4 01:05:27 10° NNE 01:10:37 47° E 01:15:16 12° S
CENTAUR R/B 4.2 01:04:22 10° WNW 01:10:41 25° WSW 01:14:47 18° SW
STARLINK-1240 4.3 01:07:19 10° WNW 01:11:25 57° N 01:15:31 10° E
GP-B 3.7 01:07:45 10° N 01:12:09 56° E 01:16:11 12° SSE
Meteor 2-1 Rocket 4.1 01:07:45 10° NNW 01:13:16 75° W 01:18:04 14° S
BREEZE-M DEB (TANK) 1.0 01:12:39 28° WSW 01:13:44 66° S 01:16:04 10° E
STARLINK-1206 3.5 01:10:06 10° WNW 01:14:15 84° SSW 01:18:24 10° ESE
Cosmos-2242 3.7 01:11:21 10° N 01:15:34 53° ENE 01:19:43 10° SSE
STARLINK-1216 4.3 01:12:18 10° WNW 01:16:24 58° N 01:20:31 10° E
Cosmos 1745 Rocket 4.1 01:12:45 19° SSW 01:17:11 66° WNW 01:23:19 10° N
STARLINK-1205 3.5 01:15:04 10° WNW 01:19:14 80° SSW 01:23:22 10° ESE
STARLINK-1237 4.2 01:17:17 10° WNW 01:21:24 59° N 01:25:31 10° E
RESURS DK-1 2.7 01:19:17 21° SW 01:21:56 58° NW 01:26:02 10° NNE
Cosmos 2181 Rocket 4.3 01:15:43 10° N 01:22:09 73° E 01:28:35 10° SSE
SL-08 R/B 4.2 01:18:09 10° SE 01:22:40 49° ENE 01:27:10 10° N
Cosmos 1356 Rocket 4.1 01:19:41 10° NNW 01:23:31 37° W 01:25:49 21° SSW
Cosmos 2227 Rocket 2.2 01:18:00 10° NNW 01:23:43 86° WSW 01:29:24 10° SSE
STARLINK-1218 3.5 01:20:03 10° WNW 01:24:11 76° SSW 01:28:20 10° ESE
CZ-2D R/B 2.1 01:20:58 10° NNE 01:26:15 74° WNW 01:30:15 17° SSW
STARLINK-1202 4.2 01:22:17 10° WNW 01:26:25 61° N 01:30:32 10° E
Cosmos 2369 Rocket 4.4 01:24:01 10° WNW 01:27:44 17° NNW 01:31:26 10° N
Cosmos 1763 Rocket 4.2 01:23:45 13° S 01:28:07 46° ESE 01:32:59 10° NE
Cosmos 1697 Rocket 3.9 01:23:21 10° S 01:28:24 35° ESE 01:33:29 10° NE
ADEOS II 2.7 01:23:47 10° NNE 01:28:56 52° E 01:34:03 10° S
STARLINK-1254 3.5 01:25:02 10° WNW 01:29:10 72° SSW 01:33:18 10° ESE
Cosmos 1703 3.9 01:26:48 13° S 01:30:14 52° E 01:34:07 10° NNE
ATLAS 2AS CENTAUR R/B 3.8 01:24:07 10° WSW 01:31:53 50° NNW 01:39:29 10° NE
STARLINK-1231 3.5 01:30:02 10° WNW 01:34:10 68° SSW 01:38:17 10° SE
STARLINK-1228 4.2 01:32:55 10° W 01:35:38 23° SW 01:38:21 10° SSE
Resurs 1-4 Rocket 2.3 01:30:46 10° N 01:35:59 61° WNW 01:40:11 16° SW
STARLINK-1246 4.1 01:32:15 10° WNW 01:36:23 64° NNE 01:40:31 10° E
STARLINK-1234 4.1 01:34:21 10° W 01:36:51 22° SW 01:37:03 22° SSW
STARLINK-1212 3.8 01:35:35 10° W 01:38:17 27° SW 01:40:58 10° SSE
STARLINK-1105 3.8 01:36:03 10° W 01:38:44 27° SW 01:41:24 10° SSE
STARLINK-1209 4.3 01:36:40 10° W 01:38:42 20° SW 01:38:42 20° SW
STARLINK-1232 3.6 01:35:02 10° WNW 01:39:08 64° SSW 01:43:14 10° SE
STARLINK-1247 3.8 01:36:58 10° W 01:39:40 27° SW 01:42:21 10° SSE
STARLINK-1227 3.8 01:37:26 10° W 01:40:06 26° SW 01:42:46 10° SSE
USA 81 4.2 01:36:19 16° SSW 01:40:35 63° W 01:45:52 10° N
STARLINK-1226 3.8 01:38:18 10° W 01:40:58 26° SW 01:43:38 10° SSE
ARIANE 5 R/B 3.5 01:36:13 10° NNE 01:41:01 41° E 01:45:46 10° SSE
STARLINK-1224 4.1 01:37:14 10° WNW 01:41:22 65° NNE 01:45:30 10° E
STARLINK-52 2.9 01:39:41 18° WSW 01:41:55 74° SSE 01:45:07 10° ENE
STARLINK-1215 3.8 01:39:15 10° W 01:41:55 26° SW 01:44:34 10° SSE
Cosmos 1758 Rocket 3.5 01:39:23 14° S 01:43:02 87° WNW 01:47:26 10° N
NPP 3.9 01:38:04 10° N 01:43:24 62° WNW 01:47:57 14° SSW
STARLINK-1217 3.9 01:41:01 10° W 01:43:40 25° SW 01:46:17 10° SSE
STARLINK-1208 3.6 01:40:00 10° WNW 01:44:05 60° SSW 01:48:10 10° SE
STARLINK-1229 3.9 01:41:57 10° W 01:44:35 25° SW 01:47:11 10° SSE
H-2A R/B 3.4 01:41:18 10° SE 01:45:23 43° ENE 01:49:36 10° N
STARLINK-1270 3.9 01:42:50 10° W 01:45:26 24° SW 01:48:03 10° SSE
STARLINK-1225 4.0 01:42:14 10° WNW 01:46:23 67° NNE 01:50:31 10° E
STARLINK-1189 4.0 01:44:41 10° W 01:47:16 24° SW 01:49:50 10° SSE
STARLINK-1188 4.0 01:45:35 10° W 01:48:10 23° SW 01:50:42 10° SSE
STARLINK-1235 4.3 01:46:28 10° W 01:48:43 19° SW 01:51:00 10° S
Cosmos 1898 Rocket 3.6 01:43:31 10° NNW 01:48:50 65° WSW 01:54:04 10° S
STARLINK-1271 3.6 01:45:00 10° WNW 01:49:04 57° SSW 01:53:08 10° SE
STARLINK-1187 4.1 01:46:47 10° W 01:49:11 21° SW 01:51:35 10° S
STARLINK-1191 4.0 01:48:06 10° W 01:50:35 22° SW 01:53:04 10° SSE
Lacrosse 4 Rocket 2.1 01:46:28 10° NNW 01:50:49 60° NE 01:55:01 10° SE
STARLINK-1230 4.0 01:47:13 10° WNW 01:51:22 70° NNE 01:55:30 10° E
Starlink 7 placeholder 3.0 01:49:43 11° W 01:51:25 38° N 01:53:20 10° ENE
STARLINK-1221 4.1 01:48:58 10° W 01:51:27 22° SW 01:53:56 10° SSE
Meteor 1-21 Rocket 4.3 01:46:48 14° SSW 01:51:39 65° WNW 01:57:20 10° N
STARLINK-1222 4.1 01:49:53 10° W 01:52:20 22° SW 01:54:47 10° SSE
STARLINK-1214 4.1 01:50:49 10° W 01:53:15 21° SW 01:55:40 10° SSE
Cosmos 1656 3.7 01:48:20 14° SSW 01:53:22 87° ESE 01:59:02 10° NNE
STARLINK-1154 3.7 01:50:00 10° WNW 01:54:02 53° SSW 01:58:04 10° SE
SJ 16-02 1.7 01:50:03 10° NNW 01:54:18 45° WSW 01:58:31 10° S
IDEFIX/ARIANE 42P 4.2 01:49:39 10° NNE 01:54:19 31° E 01:58:55 10° SSE
Cosmos 2285 Rocket 4.0 01:47:54 10° NNW 01:54:19 86° WSW 02:00:40 10° SSE
CZ-4C R/B 2.9 01:50:43 11° S 01:55:19 43° ESE 02:00:54 10° NE
Cosmos 2084 3.7 01:52:18 14° SW 01:56:09 70° NW 02:00:39 10° NE
STARLINK-1243 3.9 01:52:12 10° WNW 01:56:21 72° NNE 02:00:30 10° ESE
Cosmos 468 Rocket 4.0 01:52:22 13° SSW 01:57:00 89° WNW 02:02:10 10° NNE
STARLINK-1197 3.8 01:54:58 10° WNW 01:59:00 50° SSW 02:03:00 10° SE
Cosmos 1937 Rocket 3.5 01:53:53 10° NNW 01:59:06 72° WSW 02:04:21 10° SSE
Cosmos 1953 Rocket 3.7 01:54:52 10° S 01:59:20 79° E 02:03:48 10° NNE
Meteor 2-10 Rocket 4.0 01:55:57 10° NNW 02:00:58 42° W 02:05:48 10° SSW
COSMOS 2455 4.2 01:55:56 10° W 02:01:18 32° NW 02:06:42 10° NNE
STARLINK-1236 3.9 01:57:11 10° WNW 02:01:20 75° NNE 02:05:29 10° ESE
Cosmos 2369 4.2 01:56:10 10° S 02:01:40 57° ESE 02:07:13 10° NE
STARLINK-1198 3.8 01:59:57 10° WNW 02:03:56 46° SSW 02:07:54 10° SE
Cosmos 1709 Rocket 4.3 02:01:48 11° SSW 02:07:25 51° WNW 02:13:24 10° N
STARLINK-1199 3.9 02:04:58 10° WNW 02:08:56 43° SW 02:12:52 10° SE
Iridium 2 4.2 02:06:41 10° N 02:10:25 60° E 02:14:08 10° SSE
STARLINK-1269 3.8 02:07:08 10° WNW 02:11:17 80° NNE 02:15:27 10° ESE
USA 129 4.4 02:11:39 10° ENE 02:12:34 12° E 02:13:24 10° ESE
STARLINK-60 3.7 02:09:52 10° W 02:13:01 53° N 02:16:11 10° ENE
STARLINK-1210 4.0 02:09:58 10° WNW 02:13:51 40° SW 02:17:45 10° SE
Cosmos 2219 4.2 02:11:32 10° NW 02:16:11 27° WSW 02:20:47 10° SSW
STARLINK-1200 3.7 02:12:08 10° WNW 02:16:18 84° NNE 02:20:27 10° ESE
STARLINK-1320 3.1 02:14:52 11° SW 02:17:43 56° SSE 02:20:48 10° ENE
STARLINK-1322 3.1 02:15:11 11° SW 02:18:03 56° SSE 02:21:07 10° ENE
STARLINK-1324 3.1 02:15:32 11° SW 02:18:24 57° SSE 02:21:29 10° ENE
STARLINK-1294 3.1 02:15:47 11° SW 02:18:42 57° SSE 02:21:47 10° ENE
STARLINK-1219 4.1 02:14:58 10° WNW 02:18:49 38° SW 02:22:39 10° SSE
STARLINK-1261 3.1 02:16:09 11° SW 02:19:03 57° SSE 02:22:09 10° ENE
STARLINK-1325 3.1 02:16:30 11° SW 02:19:25 58° SSE 02:22:30 10° ENE
Nadezhda 3 Rocket 4.4 02:13:21 10° N 02:19:36 69° ENE 02:25:53 10° SSE
STARLINK-1333 3.1 02:16:48 11° SW 02:19:44 58° SSE 02:22:48 10° ENE
STARLINK-1334 3.1 02:17:07 11° SW 02:20:04 58° SSE 02:23:09 10° ENE
STARLINK-1326 3.1 02:17:28 11° SW 02:20:25 59° SSE 02:23:30 10° ENE
Cosmos 1980 Rocket 3.0 02:15:15 10° S 02:20:35 47° ESE 02:25:59 10° NE
STARLINK-1323 3.1 02:17:47 11° SW 02:20:45 59° SSE 02:23:50 10° ENE
STARLINK-1338 3.4 02:17:40 11° SW 02:20:59 57° SSE 02:24:25 10° ENE
STARLINK-1349 3.1 02:18:06 11° SW 02:21:05 59° SSE 02:24:10 10° ENE
STARLINK-1192 3.7 02:17:07 10° WNW 02:21:17 87° NNE 02:25:26 10° ESE
STARLINK-1336 3.1 02:18:28 11° SW 02:21:27 60° SSE 02:24:32 10° ENE
STARLINK-1331 3.0 02:18:45 10° SW 02:21:45 60° SSE 02:24:50 10° ENE
STARLINK-1344 3.0 02:19:05 10° SW 02:22:05 60° SSE 02:25:11 10° ENE
STARLINK-1343 3.0 02:19:25 10° SW 02:22:26 60° SSE 02:25:32 10° ENE
CZ-4B R/B 4.1 02:20:22 10° ESE 02:22:45 21° ENE 02:25:09 10° NNE
STARLINK-1346 3.1 02:19:43 10° SW 02:22:47 61° SSE 02:25:55 10° ENE
STARLINK-1328 3.0 02:20:05 10° SW 02:23:07 61° SSE 02:26:13 10° ENE
Cosmos 1328 4.3 02:19:28 10° SSW 02:23:16 44° WNW 02:27:07 10° N
STARLINK-1354 3.0 02:20:22 10° SW 02:23:26 61° SSE 02:26:32 10° ENE
STARLINK-1211 4.2 02:19:57 10° WNW 02:23:45 35° SW 02:27:32 10° SSE
STARLINK-1347 3.0 02:20:43 10° SW 02:23:48 62° SSE 02:26:54 10° ENE
STARLINK-1357 3.0 02:21:02 10° SW 02:24:06 62° SSE 02:27:12 10° ENE
STARLINK-1335 3.0 02:21:23 10° SW 02:24:28 62° SSE 02:27:34 10° ENE
STARLINK-1327 3.0 02:21:42 10° SW 02:24:48 63° SSE 02:27:53 10° ENE
STARLINK-1371 3.4 02:21:35 10° SW 02:25:01 61° SSE 02:28:29 10° ENE
ERS-2 2.2 02:21:27 10° S 02:25:03 56° WSW 02:28:42 10° NNW
STARLINK-1340 3.0 02:22:04 10° SW 02:25:09 63° SSE 02:28:14 10° ENE
STARLINK-1356 3.0 02:22:24 10° SW 02:25:29 63° SSE 02:28:35 10° ENE
STARLINK-1345 3.0 02:22:44 10° SW 02:25:50 64° SSE 02:28:55 10° ENE
ERBS 3.5 02:22:51 10° NW 02:26:06 47° NNE 02:29:22 10° E
STARLINK-1355 3.0 02:23:04 10° SW 02:26:09 64° SSE 02:29:15 10° ENE
STARLINK-1244 3.6 02:22:05 10° WNW 02:26:15 89° SSW 02:30:24 10° ESE
STARLINK-1321 3.0 02:23:23 10° SW 02:26:29 64° SSE 02:29:35 10° ENE
STARLINK-1358 3.0 02:23:45 10° SW 02:26:50 65° SSE 02:29:57 10° ENE
STARLINK-1341 3.3 02:23:36 10° SW 02:27:04 62° SSE 02:30:32 10° ENE
STARLINK-1332 3.0 02:24:04 10° SW 02:27:09 65° SSE 02:30:15 10° ENE
IRS-1C 4.3 02:21:51 10° N 02:27:10 66° WNW 02:32:27 10° SSW
STARLINK-1348 3.0 02:24:25 10° SW 02:27:31 66° SSE 02:30:38 10° ENE
STARLINK-1330 3.0 02:24:44 10° SW 02:27:50 66° SSE 02:30:56 10° ENE
STARLINK-1363 3.0 02:25:05 10° SW 02:28:10 66° SSE 02:31:16 10° ENE
STARLINK-1337 3.0 02:25:25 10° SW 02:28:30 67° SSE 02:31:37 10° ENE
STARLINK-1245 4.3 02:24:58 10° WNW 02:28:43 33° SW 02:32:27 10° SSE
STARLINK-1342 2.9 02:25:45 10° WSW 02:28:51 67° SSE 02:31:57 10° ENE
STARLINK-1374 3.3 02:25:38 10° SW 02:29:06 64° SSE 02:32:36 10° ENE
STARLINK-1364 2.9 02:26:06 10° WSW 02:29:11 67° SSE 02:32:18 10° ENE
STARLINK-1376 2.9 02:26:27 10° WSW 02:29:33 68° SSE 02:32:39 10° ENE
STARLINK-1360 2.9 02:26:42 10° WSW 02:29:49 68° SSE 02:32:55 10° ENE
STARLINK-1361 2.9 02:27:09 10° WSW 02:30:14 68° SSE 02:33:21 10° ENE
STARLINK-1367 3.0 02:27:23 10° WSW 02:30:31 69° SSE 02:33:40 10° ENE
STARLINK-1366 2.9 02:27:47 10° WSW 02:30:53 69° SSE 02:33:59 10° ENE
STARLINK-1339 3.3 02:27:43 10° SW 02:31:11 66° SSE 02:34:41 10° ENE
STARLINK-1138 3.6 02:27:04 10° WNW 02:31:13 85° SSW 02:35:22 10° ESE
Cosmos 2297 Rocket 3.3 02:27:12 10° NW 02:31:42 25° WSW 02:36:11 10° SSW
SL-4 R/B 2.6 02:26:55 10° W 02:31:44 73° N 02:36:19 10° E
STARLINK-1377 3.3 02:29:48 10° SW 02:33:17 68° SSE 02:36:47 10° ENE
STARLINK-1233 4.4 02:29:59 10° W 02:33:39 31° SW 02:37:19 10° SSE
STARLINK-1203 3.6 02:29:52 10° WNW 02:34:06 83° SSW 02:38:18 10° ESE
STARLINK-1353 3.2 02:31:41 10° WSW 02:35:09 69° SSE 02:38:37 10° ENE
Cosmos 2082 4.1 02:30:22 10° NW 02:35:41 43° WSW 02:40:58 10° S
STARLINK-1143 3.6 02:32:02 10° WNW 02:36:12 82° SSW 02:40:21 10° ESE
